Orbital Elements at Epoch 2459200.5 (2020-Dec-17.0) TDB
Reference: JPL 21 (heliocentric ecliptic J2000)
Element | Value | Uncertainty (1-sigma) | Units |
e | .05153705437489473 | 3.7122e-08 | |
a | 2.346794363207059 | 1.0732e-08 | au |
q | 2.225847494503761 | 9.0749e-08 | au |
i | 6.91145660771129 | 3.9992e-06 | deg |
node | 51.62169531008399 | 3.3108e-05 | deg |
peri | 121.8365203046431 | 5.1943e-05 | deg |
M | 305.4816112335004 | 4.0277e-05 | deg |
tp | 2459399.361858076770 (2021-Jul-03.86185808) | 0.00014696 | TDB |
period | 1313.139851110715 3.60 | 9.0075e-06 2.466e-08 | d yr |
n | .2741520636172112 | 1.8805e-09 | deg/d |
Q | 2.467741231910358 | 1.1285e-08 | au |
|
| | Orbit Determination Parameters
Additional Information
|